START_TIME,STEP,MOV.,A46,t_acc.,A13,t_acc.,M47,t_acc.,A17,t_acc.,A28,t_acc.,M38,t_acc.
1989-08-24T12:00:26.390 ,1,0,,0,0.,4.8,0.,4.8,,0,0.,4.8,0.,4.8
1989-08-24T12:00:31.190 ,1,0,,0,0.,4.8,0.,4.8,,0,0.,4.8,0.,4.8
1989-08-24T12:00:35.990 ,1,0,,0,0.,4.8,0.,4.8,,0,0.,4.8,0.,4.8
1989-08-24T12:00:40.790 ,1,0,,0,0.,4.8,0.,4.8,,0,0.,4.8,0.,4.8
1989-08-24T12:00:45.590 ,1,0,,0,0.,4.8,0.,4.8,,0,0.,4.8,0.,4.8
1989-08-24T12:00:50.380 ,0,0,,0,0.,4.8,0.,4.8,,0,0.,4.8,0.,4.8
1989-08-24T12:00:55.190 ,0,0,,0,0.,4.8,0.,4.8,,0,0.,4.8,0.,4.8
1989-08-24T12:00:59.990 ,0,0,,0,1.,4.8,0.,4.8,,0,0.,4.8,0.,4.8
1989-08-24T12:01:04.790 ,0,0,,0,0.,4.8,0.,4.8,,0,0.,4.8,0.,4.8
1989-08-24T12:01:09.590 ,0,0,,0,0.,4.8,0.,4.8,,0,0.,4.8,0.,4.8
1989-08-24T12:01:14.390 ,0,0,,0,0.,4.8,0.,4.8,,0,0.,4.8,0.,4.8
1989-08-24T12:01:19.190 ,0,0,,0,0.,4.8,0.,4.8,,0,0.,4.8,0.,4.8
1989-08-24T12:01:23.990 ,0,0,,0,0.,4.8,0.,4.8,,0,0.,4.8,0.,4.8
1989-08-24T12:01:28.790 ,0,0,,0,0.,4.8,0.,4.8,,0,0.,4.8,0.,4.8
1989-08-24T12:01:33.590 ,0,0,,0,0.,4.8,0.,4.8,,0,0.,4.8,0.,4.8
1989-08-24T12:01:38.390 ,0,0,,0,0.,4.8,0.,4.8,,0,0.,4.8,0.,4.8
1989-08-24T12:01:43.190 ,0,0,,0,0.,4.8,0.,4.8,,0,0.,4.8,0.,4.8
1989-08-24T12:01:47.990 ,0,0,,0,1.,4.8,0.,4.8,,0,0.,4.8,0.,4.8
1989-08-24T12:01:52.790 ,0,0,,0,0.,4.8,0.,4.8,,0,0.,4.8,0.,4.8
1989-08-24T12:01:57.590 ,0,0,,0,0.,4.8,0.,4.8,,0,0.,4.8,0.,4.8
1989-08-24T12:02:02.390 ,0,0,,0,0.,4.8,0.,4.8,,0,0.,4.8,0.,4.8
1989-08-24T12:02:07.190 ,0,0,,0,0.,4.8,0.,4.8,,0,0.,4.8,0.,4.8
1989-08-24T12:02:11.990 ,0,0,,0,0.,4.8,0.,4.8,,0,0.,4.8,0.,4.8
1989-08-24T12:02:16.790 ,0,0,,0,0.,4.8,0.,4.8,,0,0.,4.8,0.,4.8
1989-08-24T12:02:21.590 ,0,0,,0,0.,4.8,0.,4.8,,0,0.,4.8,0.,4.8
1989-08-24T12:02:26.380 ,1,0,,0,0.,4.8,0.,4.8,,0,0.,4.8,0.,4.8
1989-08-24T12:02:31.180 ,1,0,,0,0.,4.8,0.,4.8,,0,0.,4.8,0.,4.8
1989-08-24T12:02:35.990 ,1,0,,0,1.,4.8,0.,4.8,,0,0.,4.8,0.,4.8
1989-08-24T12:02:40.790 ,1,0,,0,0.,4.8,0.,4.8,,0,0.,4.8,0.,4.8
1989-08-24T12:02:45.590 ,1,0,,0,0.,4.8,0.,4.8,,0,0.,4.8,0.,4.8
1989-08-24T12:02:50.380 ,1,0,,0,0.,4.8,0.,4.8,,0,0.,4.8,0.,4.8
1989-08-24T12:02:55.180 ,1,0,,0,1.,4.8,0.,4.8,,0,0.,4.8,0.,4.8
1989-08-24T12:02:59.990 ,1,0,,0,0.,4.8,0.,4.8,,0,0.,4.8,0.,4.8
1989-08-24T12:03:04.790 ,1,0,,0,0.,4.8,0.,4.8,,0,0.,4.8,0.,4.8
1989-08-24T12:03:09.590 ,1,0,,0,0.,4.8,0.,4.8,,0,0.,4.8,0.,4.8
1989-08-24T12:03:14.380 ,2,0,,0,0.,4.8,0.,4.8,,0,0.,4.8,0.,4.8
1989-08-24T12:03:19.180 ,2,0,,0,0.,4.8,0.,4.8,,0,0.,4.8,0.,4.8
1989-08-24T12:03:23.990 ,2,0,,0,1.,4.8,0.,4.8,,0,0.,4.8,0.,4.8
1989-08-24T12:03:28.790 ,2,0,,0,0.,4.8,0.,4.8,,0,0.,4.8,0.,4.8
1989-08-24T12:03:33.590 ,2,0,,0,0.,4.8,0.,4.8,,0,0.,4.8,0.,4.8
1989-08-24T12:03:38.380 ,2,0,,0,0.,4.8,0.,4.8,,0,0.,4.8,0.,4.8
1989-08-24T12:03:43.180 ,2,0,,0,0.,4.8,0.,4.8,,0,0.,4.8,0.,4.8
1989-08-24T12:03:47.990 ,2,0,,0,0.,4.8,0.,4.8,,0,0.,4.8,0.,4.8
1989-08-24T12:03:52.790 ,2,0,,0,0.,4.8,0.,4.8,,0,0.,4.8,0.,4.8
1989-08-24T12:03:57.590 ,2,0,,0,0.,4.8,0.,4.8,,0,0.,4.8,0.,4.8
1989-08-24T12:04:02.380 ,3,0,,0,0.,4.8,0.,4.8,,0,0.,4.8,0.,4.8
1989-08-24T12:04:07.180 ,3,0,,0,0.,4.8,0.,4.8,,0,0.,4.8,0.,4.8
1989-08-24T12:04:11.990 ,3,0,,0,1.,4.8,0.,4.8,,0,0.,4.8,0.,4.8
1989-08-24T12:04:16.790 ,3,0,,0,0.,4.8,0.,4.8,,0,0.,4.8,0.,4.8
1989-08-24T12:04:21.590 ,3,0,,0,0.,4.8,0.,4.8,,0,0.,4.8,0.,4.8
1989-08-24T12:04:26.390 ,3,0,,0,0.,4.8,0.,4.8,,0,0.,4.8,0.,4.8
1989-08-24T12:04:31.190 ,3,0,,0,0.,4.8,0.,4.8,,0,0.,4.8,0.,4.8
1989-08-24T12:04:35.990 ,3,0,,0,0.,4.8,0.,4.8,,0,0.,4.8,0.,4.8
1989-08-24T12:04:40.790 ,3,0,,0,0.,4.8,0.,4.8,,0,0.,4.8,0.,4.8
1989-08-24T12:04:45.590 ,3,0,,0,0.,4.8,0.,4.8,,0,0.,4.8,0.,4.8
1989-08-24T12:04:50.390 ,4,0,,0,0.,4.8,0.,4.8,,0,0.,4.8,0.,4.8
1989-08-24T12:04:55.190 ,4,0,,0,0.,4.8,0.,4.8,,0,0.,4.8,0.,4.8
1989-08-24T12:04:59.990 ,4,0,,0,1.,4.8,0.,4.8,,0,0.,4.8,0.,4.8
1989-08-24T12:05:04.790 ,4,0,,0,0.,4.8,0.,4.8,,0,0.,4.8,0.,4.8
1989-08-24T12:05:09.590 ,4,0,,0,0.,4.8,0.,4.8,,0,0.,4.8,0.,4.8
1989-08-24T12:05:14.390 ,4,0,,0,0.,4.8,0.,4.8,,0,0.,4.8,0.,4.8
1989-08-24T12:05:19.190 ,4,0,,0,0.,4.8,0.,4.8,,0,0.,4.8,0.,4.8
1989-08-24T12:05:23.990 ,4,0,,0,0.,4.8,0.,4.8,,0,0.,4.8,0.,4.8
1989-08-24T12:05:28.790 ,4,0,,0,0.,4.8,0.,4.8,,0,0.,4.8,0.,4.8
1989-08-24T12:05:33.590 ,4,0,,0,0.,4.8,0.,4.8,,0,0.,4.8,0.,4.8
1989-08-24T12:05:38.390 ,5,0,,0,0.,4.8,0.,4.8,,0,0.,4.8,0.,4.8
1989-08-24T12:05:43.180 ,5,0,,0,0.,4.8,0.,4.8,,0,0.,4.8,0.,4.8
1989-08-24T12:05:47.990 ,5,0,,0,1.,4.8,0.,4.8,,0,0.,4.8,0.,4.8
1989-08-24T12:05:52.790 ,5,0,,0,0.,4.8,0.,4.8,,0,0.,4.8,0.,4.8
1989-08-24T12:05:57.590 ,5,0,,0,0.,4.8,0.,4.8,,0,0.,4.8,0.,4.8
1989-08-24T12:06:02.390 ,5,0,,0,0.,4.8,0.,4.8,,0,0.,4.8,0.,4.8
1989-08-24T12:06:07.180 ,5,0,,0,0.,4.8,0.,4.8,,0,0.,4.8,0.,4.8
1989-08-24T12:06:11.990 ,5,0,,0,0.,4.8,0.,4.8,,0,0.,4.8,0.,4.8
1989-08-24T12:06:16.790 ,5,0,,0,0.,4.8,0.,4.8,,0,0.,4.8,0.,4.8
1989-08-24T12:06:21.590 ,5,0,,0,0.,4.8,0.,4.8,,0,0.,4.8,0.,4.8
1989-08-24T12:06:26.390 ,6,0,,0,0.,4.8,0.,4.8,,0,0.,4.8,0.,4.8
1989-08-24T12:06:31.190 ,6,0,,0,0.,4.8,0.,4.8,,0,0.,4.8,0.,4.8
1989-08-24T12:06:35.990 ,6,0,,0,1.,4.8,0.,4.8,,0,0.,4.8,0.,4.8
1989-08-24T12:06:40.790 ,6,0,,0,0.,4.8,0.,4.8,,0,0.,4.8,0.,4.8
1989-08-24T12:06:45.590 ,6,0,,0,0.,4.8,0.,4.8,,0,0.,4.8,0.,4.8
1989-08-24T12:06:50.390 ,6,0,,0,0.,4.8,0.,4.8,,0,0.,4.8,0.,4.8
1989-08-24T12:06:55.190 ,6,0,,0,0.,4.8,0.,4.8,,0,0.,4.8,0.,4.8
1989-08-24T12:06:59.990 ,6,0,,0,0.,4.8,0.,4.8,,0,0.,4.8,0.,4.8
1989-08-24T12:07:04.790 ,6,0,,0,0.,4.8,0.,4.8,,0,0.,4.8,0.,4.8
1989-08-24T12:07:09.590 ,6,0,,0,0.,4.8,0.,4.8,,0,0.,4.8,0.,4.8
1989-08-24T12:07:14.390 ,7,0,,0,0.,4.8,0.,4.8,,0,0.,4.8,0.,4.8
1989-08-24T12:07:19.190 ,7,0,,0,0.,4.8,0.,4.8,,0,0.,4.8,0.,4.8
1989-08-24T12:07:23.990 ,7,0,,0,1.,4.8,0.,4.8,,0,0.,4.8,0.,4.8
1989-08-24T12:07:28.790 ,7,0,,0,5.,4.8,0.,4.8,,0,0.,4.8,0.,4.8
1989-08-24T12:07:33.590 ,7,0,,0,2.,4.8,0.,4.8,,0,0.,4.8,0.,4.8
1989-08-24T12:07:38.390 ,7,0,,0,2.,4.8,0.,4.8,,0,0.,4.8,0.,4.8
1989-08-24T12:07:43.180 ,7,0,,0,1.,4.8,0.,4.8,,0,0.,4.8,0.,4.8
1989-08-24T12:07:47.990 ,7,0,,0,7.,4.8,0.,4.8,,0,0.,4.8,0.,4.8
1989-08-24T12:07:52.790 ,7,0,,0,0.,4.8,0.,4.8,,0,0.,4.8,0.,4.8
1989-08-24T12:07:57.590 ,7,0,,0,0.,4.8,0.,4.8,,0,0.,4.8,0.,4.8
1989-08-24T12:08:02.390 ,7,0,,0,0.,4.8,0.,4.8,,0,0.,4.8,0.,4.8
1989-08-24T12:08:07.180 ,7,0,,0,0.,4.8,0.,4.8,,0,0.,4.8,0.,4.8
1989-08-24T12:08:11.990 ,7,0,,0,2.,4.8,0.,4.8,,0,0.,4.8,0.,4.8
1989-08-24T12:08:16.790 ,7,0,,0,4.,4.8,0.,4.8,,0,0.,4.8,0.,4.8
1989-08-24T12:08:21.590 ,7,0,,0,6.,4.8,0.,4.8,,0,0.,4.8,0.,4.8
1989-08-24T12:08:26.390 ,7,0,,0,4.,4.8,0.,4.8,,0,0.,4.8,0.,4.8
1989-08-24T12:08:31.190 ,7,0,,0,1.,4.8,0.,4.8,,0,0.,4.8,0.,4.8
1989-08-24T12:08:35.980 ,7,0,,0,4.,4.8,0.,4.8,,0,0.,4.8,0.,4.8
1989-08-24T12:08:40.790 ,7,0,,0,0.,4.8,0.,4.8,,0,0.,4.8,0.,4.8
1989-08-24T12:08:45.590 ,7,0,,0,0.,4.8,0.,4.8,,0,0.,4.8,0.,4.8
1989-08-24T12:08:50.390 ,6,0,,0,0.,4.8,0.,4.8,,0,0.,4.8,0.,4.8
1989-08-24T12:08:55.180 ,6,0,,0,0.,4.8,0.,4.8,,0,0.,4.8,0.,4.8
1989-08-24T12:08:59.980 ,6,0,,0,1.,4.8,0.,4.8,,0,0.,4.8,0.,4.8
1989-08-24T12:09:04.790 ,6,0,,0,0.,4.8,0.,4.8,,0,0.,4.8,0.,4.8
1989-08-24T12:09:09.590 ,6,0,,0,0.,4.8,0.,4.8,,0,0.,4.8,0.,4.8
1989-08-24T12:09:14.390 ,6,0,,0,0.,4.8,0.,4.8,,0,0.,4.8,0.,4.8
1989-08-24T12:09:19.180 ,6,0,,0,0.,4.8,0.,4.8,,0,0.,4.8,0.,4.8
1989-08-24T12:09:23.980 ,6,0,,0,0.,4.8,0.,4.8,,0,0.,4.8,0.,4.8
1989-08-24T12:09:28.790 ,6,0,,0,0.,4.8,0.,4.8,,0,0.,4.8,0.,4.8
1989-08-24T12:09:33.590 ,6,0,,0,0.,4.8,0.,4.8,,0,0.,4.8,0.,4.8
1989-08-24T12:09:38.390 ,5,0,,0,0.,4.8,0.,4.8,,0,0.,4.8,0.,4.8
1989-08-24T12:09:43.180 ,5,0,,0,0.,4.8,0.,4.8,,0,0.,4.8,0.,4.8
1989-08-24T12:09:47.990 ,5,0,,0,1.,4.8,0.,4.8,,0,0.,4.8,0.,4.8
1989-08-24T12:09:52.790 ,5,0,,0,0.,4.8,0.,4.8,,0,0.,4.8,0.,4.8
1989-08-24T12:09:57.590 ,5,0,,0,0.,4.8,0.,4.8,,0,0.,4.8,0.,4.8
1989-08-24T12:10:02.390 ,5,0,,0,0.,4.8,0.,4.8,,0,0.,4.8,0.,4.8
1989-08-24T12:10:07.180 ,5,0,,0,0.,4.8,0.,4.8,,0,0.,4.8,0.,4.8
1989-08-24T12:10:11.980 ,5,0,,0,0.,4.8,0.,4.8,,0,0.,4.8,0.,4.8
1989-08-24T12:10:16.790 ,5,0,,0,0.,4.8,0.,4.8,,0,0.,4.8,0.,4.8
1989-08-24T12:10:21.590 ,5,0,,0,0.,4.8,0.,4.8,,0,0.,4.8,0.,4.8
1989-08-24T12:10:26.390 ,4,0,,0,0.,4.8,0.,4.8,,0,0.,4.8,0.,4.8
1989-08-24T12:10:31.180 ,4,0,,0,0.,4.8,0.,4.8,,0,0.,4.8,0.,4.8
1989-08-24T12:10:35.990 ,4,0,,0,1.,4.8,0.,4.8,,0,0.,4.8,0.,4.8
1989-08-24T12:10:40.790 ,4,0,,0,0.,4.8,0.,4.8,,0,0.,4.8,0.,4.8
1989-08-24T12:10:45.590 ,4,0,,0,0.,4.8,0.,4.8,,0,0.,4.8,0.,4.8
1989-08-24T12:10:50.390 ,4,0,,0,0.,4.8,0.,4.8,,0,0.,4.8,0.,4.8
1989-08-24T12:10:55.180 ,4,0,,0,0.,4.8,0.,4.8,,0,0.,4.8,0.,4.8
1989-08-24T12:10:59.990 ,4,0,,0,0.,4.8,0.,4.8,,0,0.,4.8,0.,4.8
1989-08-24T12:11:04.790 ,4,0,,0,0.,4.8,0.,4.8,,0,0.,4.8,0.,4.8
1989-08-24T12:11:09.590 ,4,0,,0,0.,4.8,0.,4.8,,0,0.,4.8,0.,4.8
1989-08-24T12:11:14.390 ,3,0,,0,0.,4.8,0.,4.8,,0,0.,4.8,0.,4.8
1989-08-24T12:11:19.180 ,3,0,,0,0.,4.8,0.,4.8,,0,0.,4.8,0.,4.8
1989-08-24T12:11:23.990 ,3,0,,0,1.,4.8,0.,4.8,,0,0.,4.8,0.,4.8
1989-08-24T12:11:28.790 ,3,0,,0,1.,4.8,0.,4.8,,0,0.,4.8,0.,4.8
1989-08-24T12:11:33.590 ,3,0,,0,0.,4.8,0.,4.8,,0,0.,4.8,0.,4.8
1989-08-24T12:11:38.390 ,0,0,,0,0.,4.8,0.,4.8,,0,0.,4.8,0.,4.8
1989-08-24T12:11:43.180 ,0,0,,0,0.,4.8,0.,4.8,,0,0.,4.8,0.,4.8
1989-08-24T12:11:47.990 ,0,0,,0,0.,4.8,0.,4.8,,0,0.,4.8,0.,4.8
1989-08-24T12:11:52.790 ,0,0,,0,,0,,0,,0,,0,,0
1989-08-24T12:11:57.590 ,0,0,,0,0.,4.8,0.,4.8,,0,0.,4.8,0.,4.8
1989-08-24T12:12:02.380 ,2,0,,0,0.,4.8,0.,4.8,,0,0.,4.8,0.,4.8
1989-08-24T12:12:07.180 ,2,0,,0,0.,4.8,0.,4.8,,0,0.,4.8,0.,4.8
1989-08-24T12:12:11.980 ,2,0,,0,1.,4.8,0.,4.8,,0,0.,4.8,0.,4.8
1989-08-24T12:12:16.780 ,2,0,,0,0.,4.8,0.,4.8,,0,0.,4.8,0.,4.8
1989-08-24T12:12:21.580 ,2,0,,0,0.,4.8,0.,4.8,,0,0.,4.8,0.,4.8
1989-08-24T12:12:26.380 ,2,0,,0,0.,4.8,0.,4.8,,0,0.,4.8,0.,4.8
1989-08-24T12:12:31.180 ,2,0,,0,0.,4.8,0.,4.8,,0,0.,4.8,0.,4.8
1989-08-24T12:12:35.980 ,2,0,,0,0.,4.8,0.,4.8,,0,0.,4.8,0.,4.8
1989-08-24T12:12:40.780 ,2,0,,0,0.,4.8,0.,4.8,,0,0.,4.8,0.,4.8
1989-08-24T12:12:45.580 ,2,0,,0,0.,4.8,0.,4.8,,0,0.,4.8,0.,4.8
1989-08-24T12:12:50.380 ,1,0,,0,0.,4.8,0.,4.8,,0,0.,4.8,0.,4.8
1989-08-24T12:12:55.180 ,1,0,,0,0.,4.8,0.,4.8,,0,0.,4.8,0.,4.8
1989-08-24T12:12:59.980 ,1,0,,0,1.,4.8,0.,4.8,,0,0.,4.8,0.,4.8
1989-08-24T12:13:04.780 ,1,0,,0,0.,4.8,0.,4.8,,0,0.,4.8,0.,4.8
1989-08-24T12:13:09.580 ,1,0,,0,0.,4.8,0.,4.8,,0,0.,4.8,0.,4.8
1989-08-24T12:13:14.380 ,1,0,,0,0.,4.8,0.,4.8,,0,0.,4.8,0.,4.8
1989-08-24T12:13:19.180 ,1,0,,0,0.,4.8,0.,4.8,,0,0.,4.8,0.,4.8
1989-08-24T12:13:23.980 ,1,0,,0,0.,4.8,0.,4.8,,0,0.,4.8,0.,4.8
1989-08-24T12:13:28.780 ,1,0,,0,0.,4.8,0.,4.8,,0,0.,4.8,0.,4.8
1989-08-24T12:13:33.580 ,1,0,,0,0.,4.8,0.,4.8,,0,0.,4.8,0.,4.8
1989-08-24T12:13:38.380 ,0,0,,0,0.,4.8,0.,4.8,,0,0.,4.8,0.,4.8
1989-08-24T12:13:43.180 ,0,0,,0,0.,4.8,0.,4.8,,0,0.,4.8,0.,4.8
1989-08-24T12:13:47.980 ,0,0,,0,1.,4.8,0.,4.8,,0,0.,4.8,0.,4.8
1989-08-24T12:13:52.780 ,0,0,,0,0.,4.8,0.,4.8,,0,0.,4.8,0.,4.8
1989-08-24T12:13:57.580 ,0,0,,0,0.,4.8,0.,4.8,,0,0.,4.8,0.,4.8
1989-08-24T12:14:02.380 ,0,0,,0,0.,4.8,0.,4.8,,0,0.,4.8,0.,4.8
1989-08-24T12:14:07.180 ,0,0,,0,0.,4.8,0.,4.8,,0,0.,4.8,0.,4.8
1989-08-24T12:14:11.980 ,0,0,,0,0.,4.8,0.,4.8,,0,0.,4.8,0.,4.8
1989-08-24T12:14:16.780 ,0,0,,0,0.,4.8,0.,4.8,,0,0.,4.8,0.,4.8
1989-08-24T12:14:21.580 ,0,0,,0,0.,4.8,0.,4.8,,0,0.,4.8,0.,4.8
1989-08-24T12:14:26.380 ,0,0,,0,0.,4.8,0.,4.8,,0,0.,4.8,0.,4.8
1989-08-24T12:14:31.180 ,0,0,,0,0.,4.8,0.,4.8,,0,0.,4.8,0.,4.8
1989-08-24T12:14:35.980 ,0,0,,0,1.,4.8,0.,4.8,,0,0.,4.8,0.,4.8
1989-08-24T12:14:40.780 ,0,0,,0,0.,4.8,0.,4.8,,0,0.,4.8,0.,4.8
1989-08-24T12:14:45.580 ,0,0,,0,0.,4.8,0.,4.8,,0,0.,4.8,0.,4.8
1989-08-24T12:14:50.380 ,0,0,,0,0.,4.8,0.,4.8,,0,0.,4.8,0.,4.8
1989-08-24T12:14:55.180 ,0,0,,0,0.,4.8,0.,4.8,,0,0.,4.8,0.,4.8
1989-08-24T12:14:59.980 ,0,0,,0,0.,4.8,0.,4.8,,0,0.,4.8,0.,4.8
1989-08-24T12:15:04.780 ,0,0,,0,0.,4.8,0.,4.8,,0,0.,4.8,0.,4.8
1989-08-24T12:15:09.580 ,0,0,,0,0.,4.8,0.,4.8,,0,0.,4.8,0.,4.8
1989-08-24T12:15:14.380 ,1,0,,0,0.,4.8,0.,4.8,,0,0.,4.8,0.,4.8
1989-08-24T12:15:19.180 ,1,0,,0,0.,4.8,0.,4.8,,0,0.,4.8,0.,4.8
1989-08-24T12:15:23.980 ,1,0,,0,1.,4.8,0.,4.8,,0,0.,4.8,0.,4.8
1989-08-24T12:15:28.780 ,1,0,,0,0.,4.8,0.,4.8,,0,0.,4.8,0.,4.8
1989-08-24T12:15:33.580 ,1,0,,0,0.,4.8,0.,4.8,,0,0.,4.8,0.,4.8
1989-08-24T12:15:38.380 ,1,0,,0,0.,4.8,0.,4.8,,0,0.,4.8,0.,4.8
1989-08-24T12:15:43.180 ,1,0,,0,0.,4.8,0.,4.8,,0,0.,4.8,0.,4.8
1989-08-24T12:15:47.980 ,1,0,,0,0.,4.8,0.,4.8,,0,0.,4.8,0.,4.8
1989-08-24T12:15:52.780 ,1,0,,0,0.,4.8,0.,4.8,,0,0.,4.8,0.,4.8
1989-08-24T12:15:57.580 ,1,0,,0,0.,4.8,0.,4.8,,0,0.,4.8,0.,4.8
1989-08-24T12:16:02.380 ,2,0,,0,0.,4.8,0.,4.8,,0,0.,4.8,0.,4.8
1989-08-24T12:16:07.180 ,2,0,,0,0.,4.8,0.,4.8,,0,0.,4.8,0.,4.8
1989-08-24T12:16:11.980 ,2,0,,0,1.,4.8,0.,4.8,,0,0.,4.8,0.,4.8
1989-08-24T12:16:16.780 ,2,0,,0,0.,4.8,0.,4.8,,0,0.,4.8,0.,4.8
1989-08-24T12:16:21.580 ,2,0,,0,0.,4.8,0.,4.8,,0,0.,4.8,0.,4.8
1989-08-24T12:16:26.380 ,2,0,,0,0.,4.8,0.,4.8,,0,0.,4.8,0.,4.8
1989-08-24T12:16:31.180 ,2,0,,0,0.,4.8,0.,4.8,,0,0.,4.8,0.,4.8
1989-08-24T12:16:35.980 ,2,0,,0,1.,4.8,0.,4.8,,0,0.,4.8,0.,4.8
1989-08-24T12:16:40.780 ,2,0,,0,0.,4.8,0.,4.8,,0,0.,4.8,0.,4.8
1989-08-24T12:16:45.580 ,2,0,,0,0.,4.8,0.,4.8,,0,0.,4.8,0.,4.8
1989-08-24T12:16:50.380 ,3,0,,0,0.,4.8,0.,4.8,,0,0.,4.8,0.,4.8
1989-08-24T12:16:55.180 ,3,0,,0,0.,4.8,0.,4.8,,0,0.,4.8,0.,4.8
1989-08-24T12:16:59.980 ,3,0,,0,1.,4.8,0.,4.8,,0,0.,4.8,0.,4.8
1989-08-24T12:17:04.780 ,3,0,,0,0.,4.8,0.,4.8,,0,0.,4.8,0.,4.8
1989-08-24T12:17:09.580 ,3,0,,0,0.,4.8,0.,4.8,,0,0.,4.8,0.,4.8
1989-08-24T12:17:14.380 ,3,0,,0,0.,4.8,0.,4.8,,0,0.,4.8,0.,4.8
1989-08-24T12:17:19.180 ,3,0,,0,0.,4.8,0.,4.8,,0,0.,4.8,0.,4.8
1989-08-24T12:17:23.980 ,3,0,,0,0.,4.8,0.,4.8,,0,0.,4.8,0.,4.8
1989-08-24T12:17:28.780 ,3,0,,0,0.,4.8,0.,4.8,,0,0.,4.8,0.,4.8
1989-08-24T12:17:33.580 ,3,0,,0,0.,4.8,0.,4.8,,0,0.,4.8,0.,4.8
1989-08-24T12:17:38.380 ,4,0,,0,0.,4.8,0.,4.8,,0,0.,4.8,0.,4.8
1989-08-24T12:17:43.180 ,4,0,,0,0.,4.8,0.,4.8,,0,0.,4.8,0.,4.8
1989-08-24T12:17:47.980 ,4,0,,0,1.,4.8,0.,4.8,,0,0.,4.8,0.,4.8
1989-08-24T12:17:52.780 ,4,0,,0,0.,4.8,0.,4.8,,0,0.,4.8,0.,4.8
1989-08-24T12:17:57.580 ,4,0,,0,0.,4.8,0.,4.8,,0,0.,4.8,0.,4.8
1989-08-24T12:18:02.380 ,4,0,,0,0.,4.8,0.,4.8,,0,0.,4.8,0.,4.8
1989-08-24T12:18:07.180 ,4,0,,0,0.,4.8,0.,4.8,,0,0.,4.8,0.,4.8
1989-08-24T12:18:11.980 ,4,0,,0,0.,4.8,0.,4.8,,0,0.,4.8,0.,4.8
1989-08-24T12:18:16.780 ,4,0,,0,0.,4.8,0.,4.8,,0,0.,4.8,0.,4.8
1989-08-24T12:18:21.580 ,4,0,,0,0.,4.8,0.,4.8,,0,0.,4.8,0.,4.8
1989-08-24T12:18:26.380 ,5,0,,0,0.,4.8,0.,4.8,,0,0.,4.8,0.,4.8
1989-08-24T12:18:31.180 ,5,0,,0,0.,4.8,0.,4.8,,0,0.,4.8,0.,4.8
1989-08-24T12:18:35.980 ,5,0,,0,1.,4.8,0.,4.8,,0,0.,4.8,0.,4.8
1989-08-24T12:18:40.780 ,5,0,,0,0.,4.8,0.,4.8,,0,0.,4.8,0.,4.8
1989-08-24T12:18:45.580 ,5,0,,0,0.,4.8,0.,4.8,,0,0.,4.8,0.,4.8
1989-08-24T12:18:50.380 ,5,0,,0,0.,4.8,0.,4.8,,0,0.,4.8,0.,4.8
1989-08-24T12:18:55.180 ,5,0,,0,0.,4.8,0.,4.8,,0,0.,4.8,0.,4.8
1989-08-24T12:18:59.980 ,5,0,,0,0.,4.8,0.,4.8,,0,0.,4.8,0.,4.8
1989-08-24T12:19:04.780 ,5,0,,0,0.,4.8,0.,4.8,,0,0.,4.8,0.,4.8
1989-08-24T12:19:09.580 ,5,0,,0,0.,4.8,0.,4.8,,0,0.,4.8,0.,4.8
1989-08-24T12:19:14.380 ,6,0,,0,0.,4.8,0.,4.8,,0,0.,4.8,0.,4.8
1989-08-24T12:19:19.180 ,6,0,,0,0.,4.8,0.,4.8,,0,0.,4.8,0.,4.8
1989-08-24T12:19:23.980 ,6,0,,0,1.,4.8,0.,4.8,,0,0.,4.8,0.,4.8
1989-08-24T12:19:28.780 ,6,0,,0,0.,4.8,0.,4.8,,0,0.,4.8,0.,4.8
1989-08-24T12:19:33.580 ,6,0,,0,0.,4.8,0.,4.8,,0,0.,4.8,0.,4.8
1989-08-24T12:19:38.380 ,6,0,,0,0.,4.8,0.,4.8,,0,0.,4.8,0.,4.8
1989-08-24T12:19:43.180 ,6,0,,0,0.,4.8,0.,4.8,,0,0.,4.8,0.,4.8
1989-08-24T12:19:47.980 ,6,0,,0,0.,4.8,0.,4.8,,0,0.,4.8,0.,4.8
1989-08-24T12:19:52.780 ,6,0,,0,0.,4.8,0.,4.8,,0,0.,4.8,0.,4.8
1989-08-24T12:19:57.580 ,6,0,,0,0.,4.8,0.,4.8,,0,0.,4.8,0.,4.8
1989-08-24T12:20:02.380 ,7,0,,0,0.,4.8,0.,4.8,,0,0.,4.8,0.,4.8
1989-08-24T12:20:07.180 ,7,0,,0,0.,4.8,0.,4.8,,0,0.,4.8,0.,4.8
1989-08-24T12:20:11.980 ,7,0,,0,1.,4.8,0.,4.8,,0,0.,4.8,0.,4.8
1989-08-24T12:20:16.780 ,7,0,,0,7.,4.8,0.,4.8,,0,0.,4.8,0.,4.8
1989-08-24T12:20:21.580 ,7,0,,0,5.,4.8,0.,4.8,,0,0.,4.8,0.,4.8
1989-08-24T12:20:26.380 ,7,0,,0,2.,4.8,0.,4.8,,0,0.,4.8,0.,4.8
1989-08-24T12:20:31.180 ,7,0,,0,3.,4.8,0.,4.8,,0,0.,4.8,0.,4.8
1989-08-24T12:20:35.980 ,7,0,,0,3.,4.8,0.,4.8,,0,0.,4.8,0.,4.8
1989-08-24T12:20:40.780 ,7,0,,0,0.,4.8,0.,4.8,,0,0.,4.8,0.,4.8
1989-08-24T12:20:45.580 ,7,0,,0,0.,4.8,0.,4.8,,0,0.,4.8,0.,4.8
1989-08-24T12:20:50.380 ,7,0,,0,0.,4.8,0.,4.8,,0,0.,4.8,0.,4.8
1989-08-24T12:20:55.180 ,7,0,,0,0.,4.8,0.,4.8,,0,0.,4.8,0.,4.8
1989-08-24T12:20:59.980 ,7,0,,0,1.,4.8,0.,4.8,,0,0.,4.8,0.,4.8
1989-08-24T12:21:04.780 ,7,0,,0,4.,4.8,0.,4.8,,0,0.,4.8,0.,4.8
1989-08-24T12:21:09.580 ,7,0,,0,7.,4.8,0.,4.8,,0,0.,4.8,0.,4.8
1989-08-24T12:21:14.380 ,7,0,,0,4.,4.8,0.,4.8,,0,0.,4.8,0.,4.8
1989-08-24T12:21:19.180 ,7,0,,0,2.,4.8,0.,4.8,,0,0.,4.8,0.,4.8
1989-08-24T12:21:23.980 ,7,0,,0,2.,4.8,0.,4.8,,0,0.,4.8,0.,4.8
1989-08-24T12:21:28.780 ,7,0,,0,0.,4.8,0.,4.8,,0,0.,4.8,0.,4.8
1989-08-24T12:21:33.580 ,7,0,,0,0.,4.8,0.,4.8,,0,0.,4.8,0.,4.8
1989-08-24T12:21:38.380 ,6,0,,0,0.,4.8,0.,4.8,,0,0.,4.8,0.,4.8
1989-08-24T12:21:43.180 ,6,0,,0,0.,4.8,0.,4.8,,0,0.,4.8,0.,4.8
1989-08-24T12:21:47.980 ,6,0,,0,1.,4.8,0.,4.8,,0,0.,4.8,0.,4.8
1989-08-24T12:21:52.780 ,6,0,,0,0.,4.8,0.,4.8,,0,0.,4.8,0.,4.8
1989-08-24T12:21:57.580 ,6,0,,0,0.,4.8,0.,4.8,,0,0.,4.8,0.,4.8
1989-08-24T12:22:02.380 ,6,0,,0,0.,4.8,0.,4.8,,0,0.,4.8,0.,4.8
1989-08-24T12:22:07.180 ,6,0,,0,0.,4.8,0.,4.8,,0,0.,4.8,0.,4.8
1989-08-24T12:22:11.980 ,6,0,,0,0.,4.8,0.,4.8,,0,0.,4.8,0.,4.8
1989-08-24T12:22:16.780 ,6,0,,0,0.,4.8,0.,4.8,,0,0.,4.8,0.,4.8
1989-08-24T12:22:21.580 ,6,0,,0,0.,4.8,0.,4.8,,0,0.,4.8,0.,4.8
1989-08-24T12:22:26.380 ,5,0,,0,0.,4.8,0.,4.8,,0,0.,4.8,0.,4.8
1989-08-24T12:22:31.180 ,5,0,,0,0.,4.8,0.,4.8,,0,0.,4.8,0.,4.8
1989-08-24T12:22:35.980 ,5,0,,0,1.,4.8,0.,4.8,,0,0.,4.8,0.,4.8
1989-08-24T12:22:40.780 ,5,0,,0,0.,4.8,0.,4.8,,0,0.,4.8,0.,4.8
1989-08-24T12:22:45.580 ,5,0,,0,0.,4.8,0.,4.8,,0,0.,4.8,0.,4.8
1989-08-24T12:22:50.380 ,5,0,,0,0.,4.8,0.,4.8,,0,0.,4.8,0.,4.8
1989-08-24T12:22:55.180 ,5,0,,0,0.,4.8,0.,4.8,,0,0.,4.8,0.,4.8
1989-08-24T12:22:59.980 ,5,0,,0,0.,4.8,0.,4.8,,0,0.,4.8,0.,4.8
1989-08-24T12:23:04.780 ,5,0,,0,0.,4.8,0.,4.8,,0,0.,4.8,0.,4.8
1989-08-24T12:23:09.580 ,5,0,,0,0.,4.8,0.,4.8,,0,0.,4.8,0.,4.8
1989-08-24T12:23:14.380 ,4,0,,0,0.,4.8,0.,4.8,,0,0.,4.8,0.,4.8
1989-08-24T12:23:19.180 ,4,0,,0,0.,4.8,0.,4.8,,0,0.,4.8,0.,4.8
1989-08-24T12:23:23.980 ,4,0,,0,1.,4.8,0.,4.8,,0,0.,4.8,0.,4.8
1989-08-24T12:23:28.780 ,4,0,,0,0.,4.8,0.,4.8,,0,0.,4.8,0.,4.8
1989-08-24T12:23:33.580 ,4,0,,0,0.,4.8,0.,4.8,,0,0.,4.8,0.,4.8
1989-08-24T12:23:38.380 ,4,0,,0,0.,4.8,0.,4.8,,0,0.,4.8,0.,4.8
1989-08-24T12:23:43.180 ,4,0,,0,0.,4.8,0.,4.8,,0,0.,4.8,0.,4.8
1989-08-24T12:23:47.980 ,4,0,,0,0.,4.8,0.,4.8,,0,0.,4.8,0.,4.8
1989-08-24T12:23:52.780 ,4,0,,0,0.,4.8,0.,4.8,,0,0.,4.8,0.,4.8
1989-08-24T12:23:57.580 ,4,0,,0,0.,4.8,0.,4.8,,0,0.,4.8,0.,4.8
1989-08-24T12:24:02.380 ,3,0,,0,0.,4.8,0.,4.8,,0,0.,4.8,0.,4.8
1989-08-24T12:24:07.180 ,3,0,,0,0.,4.8,0.,4.8,,0,0.,4.8,0.,4.8
1989-08-24T12:24:11.980 ,3,0,,0,1.,4.8,0.,4.8,,0,0.,4.8,0.,4.8
1989-08-24T12:24:16.780 ,3,0,,0,0.,4.8,0.,4.8,,0,0.,4.8,0.,4.8
1989-08-24T12:24:21.580 ,3,0,,0,0.,4.8,0.,4.8,,0,0.,4.8,0.,4.8
1989-08-24T12:24:26.380 ,3,0,,0,0.,4.8,0.,4.8,,0,0.,4.8,0.,4.8
1989-08-24T12:24:31.180 ,3,0,,0,0.,4.8,0.,4.8,,0,0.,4.8,0.,4.8
1989-08-24T12:24:35.980 ,3,0,,0,0.,4.8,0.,4.8,,0,0.,4.8,0.,4.8
1989-08-24T12:24:40.780 ,3,0,,0,0.,4.8,0.,4.8,,0,0.,4.8,0.,4.8
1989-08-24T12:24:45.580 ,3,0,,0,0.,4.8,0.,4.8,,0,0.,4.8,0.,4.8
1989-08-24T12:24:50.380 ,2,0,,0,0.,4.8,0.,4.8,,0,0.,4.8,0.,4.8
1989-08-24T12:24:55.180 ,2,0,,0,0.,4.8,0.,4.8,,0,0.,4.8,0.,4.8
1989-08-24T12:24:59.980 ,2,0,,0,1.,4.8,0.,4.8,,0,0.,4.8,0.,4.8
1989-08-24T12:25:04.780 ,2,0,,0,0.,4.8,0.,4.8,,0,0.,4.8,0.,4.8
1989-08-24T12:25:09.580 ,2,0,,0,0.,4.8,0.,4.8,,0,0.,4.8,0.,4.8
1989-08-24T12:25:14.380 ,2,0,,0,0.,4.8,0.,4.8,,0,0.,4.8,0.,4.8
1989-08-24T12:25:19.180 ,2,0,,0,0.,4.8,0.,4.8,,0,0.,4.8,0.,4.8
1989-08-24T12:25:23.980 ,2,0,,0,0.,4.8,0.,4.8,,0,0.,4.8,0.,4.8
1989-08-24T12:25:28.780 ,2,0,,0,0.,4.8,0.,4.8,,0,0.,4.8,0.,4.8
1989-08-24T12:25:33.580 ,2,0,,0,0.,4.8,0.,4.8,,0,0.,4.8,0.,4.8
1989-08-24T12:25:38.380 ,1,0,,0,0.,4.8,0.,4.8,,0,0.,4.8,0.,4.8
1989-08-24T12:25:43.180 ,1,0,,0,0.,4.8,0.,4.8,,0,0.,4.8,0.,4.8
1989-08-24T12:25:47.980 ,1,0,,0,1.,4.8,0.,4.8,,0,0.,4.8,0.,4.8
1989-08-24T12:25:52.780 ,1,0,,0,0.,4.8,0.,4.8,,0,0.,4.8,0.,4.8
1989-08-24T12:25:57.580 ,1,0,,0,0.,4.8,0.,4.8,,0,0.,4.8,0.,4.8
1989-08-24T12:26:02.380 ,1,0,,0,0.,4.8,0.,4.8,,0,0.,4.8,0.,4.8
1989-08-24T12:26:07.180 ,1,0,,0,0.,4.8,0.,4.8,,0,0.,4.8,0.,4.8
1989-08-24T12:26:11.980 ,1,0,,0,0.,4.8,0.,4.8,,0,0.,4.8,0.,4.8
1989-08-24T12:26:16.780 ,1,0,,0,0.,4.8,0.,4.8,,0,0.,4.8,0.,4.8
1989-08-24T12:26:21.580 ,1,0,,0,0.,4.8,0.,4.8,,0,0.,4.8,0.,4.8
1989-08-24T12:26:26.380 ,0,0,,0,0.,4.8,0.,4.8,,0,0.,4.8,0.,4.8
1989-08-24T12:26:31.180 ,0,0,,0,0.,4.8,0.,4.8,,0,0.,4.8,0.,4.8
1989-08-24T12:26:35.980 ,0,0,,0,1.,4.8,0.,4.8,,0,0.,4.8,0.,4.8
1989-08-24T12:26:40.780 ,0,0,,0,0.,4.8,0.,4.8,,0,0.,4.8,0.,4.8
1989-08-24T12:26:45.580 ,0,0,,0,0.,4.8,0.,4.8,,0,0.,4.8,0.,4.8
1989-08-24T12:26:50.380 ,0,0,,0,0.,4.8,0.,4.8,,0,0.,4.8,0.,4.8
1989-08-24T12:26:55.180 ,0,0,,0,0.,4.8,0.,4.8,,0,0.,4.8,0.,4.8
1989-08-24T12:26:59.980 ,0,0,,0,0.,4.8,0.,4.8,,0,0.,4.8,0.,4.8
1989-08-24T12:27:04.780 ,0,0,,0,0.,4.8,0.,4.8,,0,0.,4.8,0.,4.8
1989-08-24T12:27:09.580 ,0,0,,0,0.,4.8,0.,4.8,,0,0.,4.8,0.,4.8
1989-08-24T12:27:14.380 ,0,0,,0,0.,4.8,0.,4.8,,0,0.,4.8,0.,4.8
1989-08-24T12:27:19.180 ,0,0,,0,0.,4.8,0.,4.8,,0,0.,4.8,0.,4.8
1989-08-24T12:27:23.980 ,0,0,,0,1.,4.8,0.,4.8,,0,0.,4.8,0.,4.8
1989-08-24T12:27:28.780 ,0,0,,0,0.,4.8,0.,4.8,,0,0.,4.8,0.,4.8
1989-08-24T12:27:33.580 ,0,0,,0,0.,4.8,0.,4.8,,0,0.,4.8,0.,4.8
1989-08-24T12:27:38.380 ,0,0,,0,0.,4.8,0.,4.8,,0,0.,4.8,0.,4.8
1989-08-24T12:27:43.180 ,0,0,,0,0.,4.8,0.,4.8,,0,0.,4.8,0.,4.8
1989-08-24T12:27:47.980 ,0,0,,0,0.,4.8,0.,4.8,,0,0.,4.8,0.,4.8
1989-08-24T12:27:52.780 ,0,0,,0,0.,4.8,0.,4.8,,0,0.,4.8,0.,4.8
1989-08-24T12:27:57.580 ,0,0,,0,0.,4.8,0.,4.8,,0,0.,4.8,0.,4.8
1989-08-24T12:28:02.380 ,1,0,,0,0.,4.8,0.,4.8,,0,0.,4.8,0.,4.8
1989-08-24T12:28:07.180 ,1,0,,0,0.,4.8,0.,4.8,,0,0.,4.8,0.,4.8
1989-08-24T12:28:11.980 ,1,0,,0,1.,4.8,0.,4.8,,0,0.,4.8,0.,4.8
1989-08-24T12:28:16.780 ,1,0,,0,0.,4.8,0.,4.8,,0,0.,4.8,0.,4.8
1989-08-24T12:28:21.580 ,1,0,,0,0.,4.8,0.,4.8,,0,0.,4.8,0.,4.8
1989-08-24T12:28:26.380 ,1,0,,0,0.,4.8,0.,4.8,,0,0.,4.8,0.,4.8
1989-08-24T12:28:31.180 ,1,0,,0,0.,4.8,0.,4.8,,0,0.,4.8,0.,4.8
1989-08-24T12:28:35.980 ,1,0,,0,0.,4.8,0.,4.8,,0,0.,4.8,0.,4.8
1989-08-24T12:28:40.780 ,1,0,,0,0.,4.8,0.,4.8,,0,0.,4.8,0.,4.8
1989-08-24T12:28:45.580 ,1,0,,0,0.,4.8,0.,4.8,,0,0.,4.8,0.,4.8
1989-08-24T12:28:50.380 ,2,0,,0,0.,4.8,0.,4.8,,0,0.,4.8,0.,4.8
1989-08-24T12:28:55.180 ,2,0,,0,0.,4.8,0.,4.8,,0,0.,4.8,0.,4.8
1989-08-24T12:28:59.980 ,2,0,,0,1.,4.8,0.,4.8,,0,0.,4.8,0.,4.8
1989-08-24T12:29:04.780 ,2,0,,0,0.,4.8,0.,4.8,,0,0.,4.8,0.,4.8
1989-08-24T12:29:09.580 ,2,0,,0,0.,4.8,0.,4.8,,0,0.,4.8,0.,4.8
1989-08-24T12:29:14.380 ,2,0,,0,0.,4.8,0.,4.8,,0,0.,4.8,0.,4.8
1989-08-24T12:29:19.180 ,2,0,,0,0.,4.8,0.,4.8,,0,0.,4.8,0.,4.8
1989-08-24T12:29:23.980 ,2,0,,0,0.,4.8,0.,4.8,,0,0.,4.8,0.,4.8
1989-08-24T12:29:28.780 ,2,0,,0,0.,4.8,0.,4.8,,0,0.,4.8,0.,4.8
1989-08-24T12:29:33.580 ,2,0,,0,0.,4.8,0.,4.8,,0,0.,4.8,0.,4.8
1989-08-24T12:29:38.380 ,3,0,,0,0.,4.8,0.,4.8,,0,0.,4.8,0.,4.8
1989-08-24T12:29:43.180 ,3,0,,0,0.,4.8,0.,4.8,,0,0.,4.8,0.,4.8
1989-08-24T12:29:47.980 ,3,0,,0,1.,4.8,0.,4.8,,0,0.,4.8,0.,4.8
1989-08-24T12:29:52.780 ,3,0,,0,0.,4.8,0.,4.8,,0,0.,4.8,0.,4.8
1989-08-24T12:29:57.580 ,3,0,,0,0.,4.8,0.,4.8,,0,0.,4.8,0.,4.8
1989-08-24T12:30:02.380 ,3,0,,0,0.,4.8,0.,4.8,,0,0.,4.8,0.,4.8
1989-08-24T12:30:07.180 ,3,0,,0,0.,4.8,0.,4.8,,0,0.,4.8,0.,4.8
1989-08-24T12:30:11.980 ,3,0,,0,0.,4.8,0.,4.8,,0,0.,4.8,0.,4.8